TimeEDT,TemperatureF,Dew PointF,Humidity,Sea Level PressureIn,VisibilityMPH,Wind Direction,Wind SpeedMPH,Gust SpeedMPH,PrecipitationIn,Events,Conditions,WindDirDegrees,DateUTC
12:46 AM,80.6,75.2,84,29.81,10.0,SSW,15.0,21.9,N/A,,Mostly Cloudy,200,2013-06-30 04:46:00
12:56 AM,81.0,75.0,82,29.83,10.0,SSW,12.7,20.7,N/A,,Overcast,200,2013-06-30 04:56:00
1:27 AM,80.6,73.4,79,29.81,10.0,SSW,16.1,26.5,N/A,,Scattered Clouds,210,2013-06-30 05:27:00
1:56 AM,80.1,73.9,81,29.83,10.0,SSW,13.8,-,N/A,,Partly Cloudy,200,2013-06-30 05:56:00
2:56 AM,79.0,72.0,79,29.82,10.0,SSW,11.5,-,0.00,,Partly Cloudy,200,2013-06-30 06:56:00
3:56 AM,79.0,73.0,82,29.81,10.0,South,11.5,-,N/A,,Partly Cloudy,190,2013-06-30 07:56:00
4:56 AM,80.1,75.0,85,29.81,7.0,SSW,18.4,24.2,0.06,Rain,Light Rain,210,2013-06-30 08:56:00
5:02 AM,78.8,75.2,89,29.80,1.8,South,19.6,29.9,0.08,Rain,Heavy Rain,190,2013-06-30 09:02:00
5:08 AM,77.0,73.4,89,29.80,3.0,SSW,17.3,29.9,0.08,,Mostly Cloudy,200,2013-06-30 09:08:00
5:56 AM,77.0,75.0,94,29.83,9.0,South,12.7,-,0.08,,Mostly Cloudy,190,2013-06-30 09:56:00
6:56 AM,77.0,75.0,94,29.84,6.0,SSW,9.2,-,0.01,,Mostly Cloudy,210,2013-06-30 10:56:00
7:26 AM,77.0,73.4,89,29.84,1.8,WSW,15.0,20.7,0.11,,Overcast,240,2013-06-30 11:26:00
7:37 AM,75.2,73.4,94,29.84,3.0,SW,13.8,24.2,0.15,,Overcast,230,2013-06-30 11:37:00
7:56 AM,75.9,73.9,94,29.86,2.5,SW,15.0,20.7,0.21,,Overcast,230,2013-06-30 11:56:00
8:05 AM,75.2,73.4,94,29.85,4.0,SW,11.5,25.3,0.01,,Overcast,220,2013-06-30 12:05:00
8:56 AM,75.0,73.9,96,29.86,8.0,SSW,8.1,-,0.05,Rain,Light Rain,200,2013-06-30 12:56:00
9:07 AM,75.2,73.4,94,29.86,7.0,South,6.9,-,0.00,,Mostly Cloudy,190,2013-06-30 13:07:00
9:19 AM,77.0,75.2,94,29.85,7.0,South,10.4,-,0.00,Rain,Light Rain,190,2013-06-30 13:19:00
9:43 AM,78.8,75.2,89,29.85,7.0,SSW,11.5,-,0.00,,Mostly Cloudy,200,2013-06-30 13:43:00
9:53 AM,78.8,75.2,89,29.86,7.0,SSW,13.8,-,0.00,,Mostly Cloudy,210,2013-06-30 13:53:00
9:56 AM,79.0,75.9,90,29.88,7.0,SSW,11.5,-,0.00,,Mostly Cloudy,210,2013-06-30 13:56:00
10:16 AM,78.8,75.2,89,29.87,8.0,SW,10.4,-,0.00,Rain,Light Rain,220,2013-06-30 14:16:00
10:23 AM,80.6,75.2,84,29.87,9.0,SSW,9.2,-,0.00,Rain,Light Rain,210,2013-06-30 14:23:00
10:56 AM,81.0,73.9,79,29.88,8.0,SW,8.1,-,0.01,Rain,Light Rain,230,2013-06-30 14:56:00
11:11 AM,80.6,75.2,84,29.87,10.0,WSW,8.1,-,0.00,,Overcast,250,2013-06-30 15:11:00
11:44 AM,77.0,75.2,94,29.88,1.5,WSW,18.4,25.3,0.14,Rain,Heavy Rain,250,2013-06-30 15:44:00
11:49 AM,75.2,73.4,94,29.90,0.5,WSW,16.1,25.3,0.32,Fog-Rain,Heavy Rain,240,2013-06-30 15:49:00
11:56 AM,75.0,75.0,100,29.90,0.5,SW,15.0,24.2,0.47,Fog-Rain,Heavy Rain,230,2013-06-30 15:56:00
12:56 PM,75.9,-9999,N/A,29.89,7.0,South,8.1,-,0.22,Rain,Light Rain,190,2013-06-30 16:56:00
1:56 PM,79.0,-9999,N/A,29.88,8.0,South,9.2,-,0.01,Rain,Light Rain,170,2013-06-30 17:56:00
2:56 PM,79.0,-9999,N/A,29.89,9.0,South,10.4,-,0.01,Rain,Light Rain,190,2013-06-30 18:56:00
3:56 PM,81.0,78.1,91,29.88,10.0,South,12.7,-,0.00,,Mostly Cloudy,190,2013-06-30 19:56:00
4:56 PM,82.0,75.0,79,29.87,10.0,South,12.7,20.7,N/A,,Mostly Cloudy,170,2013-06-30 20:56:00
6:56 PM,81.0,77.0,88,29.89,9.0,South,13.8,20.7,N/A,,Overcast,180,2013-06-30 22:56:00
7:56 PM,81.0,77.0,88,29.91,9.0,South,9.2,17.3,N/A,,Mostly Cloudy,190,2013-06-30 23:56:00
8:56 PM,80.1,75.9,87,29.93,10.0,South,9.2,-,N/A,,Clear,180,2013-07-01 00:56:00
9:56 PM,79.0,75.0,88,29.94,10.0,South,6.9,-,N/A,,Clear,180,2013-07-01 01:56:00
10:56 PM,79.0,75.9,90,29.95,10.0,South,6.9,-,N/A,,Clear,180,2013-07-01 02:56:00